Home > Time Zones > World Clock > Weather > France > Pau > Past weeks

Flag for France Weather past 2 weeks in Pau, France

Now
73 °F

Thundershowers. Overcast.


Feels Like: 75 °F
Forecast: 65 / 79 °F
Wind: 17 mph from West

Location: Pau Airport

Current Time: Aug 3, 2015 at 8:21:18 PM

Latest Report: Aug 3, 2015 at 8:00 PM


Visibility: N/A

Pressure: 29.98 "Hg

Humidity: 74%

Dew point: 64 °F

Location of PauLocation

Historic Weather in Pau — Graph

°F

Pau temperature yesterday

Maximum temperature yesterday: 88 °F (at 5:00 PM)
Minimum temperature yesterday: 54 °F (at 4:00 AM)
Average temperature yesterday: 72 °F

Past Weeks' High & Low Weather Summary

 TemperatureHumidityPressure
High90 °F (Jul 21, 2:30 PM)100% (Jul 21, 8:30 AM)30.18 "Hg (Jul 21, 8:30 AM)
Low52 °F (Jul 26, 5:30 AM)38% (Aug 2, 5:00 PM)29.83 "Hg (Jul 31, 10:00 AM)
Average69 °F77%30.01 "Hg
* Reported Jul 19 7:00 PM — Aug 3 7:00 PM, Pau, Weather by CustomWeather, © 2015

Note: Actual official high and low records may vary slightly from our data, if they occured in-between our weather recording intervals... More about our weather records

Advertising

Pau weather history for previous 24 hours

 ConditionsComfort  
Time TempWeatherWind HumidityBarometerVisibility
7:00 PM
Mon, Aug 3
81 °FSunny.9 mph70%29.89 "Hg10 mi
6:30 PM84 °FPartly sunny.12 mph66%29.89 "HgN/A
6:00 PM86 °FPassing clouds.6 mph62%29.86 "HgN/A
5:30 PM86 °FScattered clouds.5 mph62%29.92 "HgN/A
5:00 PM86 °FPassing clouds.6 mph59%29.95 "HgN/A
4:30 PM88 °FSunny.3 mph55%29.92 "Hg10 mi
4:00 PM88 °FSunny.2 mph55%29.95 "Hg10 mi
3:30 PM88 °FSunny.3 mph55%29.95 "Hg10 mi
3:00 PM86 °FSunny.3 mph59%29.95 "Hg10 mi
2:30 PM84 °FSunny.2 mph58%29.95 "Hg10 mi
2:00 PM82 °FPassing clouds.3 mph58%29.98 "HgN/A
1:30 PM82 °FSunny.2 mph58%29.98 "Hg10 mi
1:00 PM81 °FSunny.3 mph66%29.98 "Hg10 mi
12:30 PM79 °FSunny.2 mph65%29.98 "Hg10 mi
12:00 PM79 °FSunny.3 mph65%30.01 "Hg10 mi
11:30 AM75 °FSunny.2 mph74%30.01 "Hg10 mi
11:00 AM73 °FSunny.2 mph78%30.01 "Hg10 mi
10:30 AM72 °FPassing clouds.2 mph78%30.01 "HgN/A
10:00 AM70 °FPartly sunny.3 mph83%30.01 "HgN/A
9:30 AM70 °FLow clouds.7 mph88%30.01 "HgN/A
9:00 AM68 °FLow clouds.5 mph88%30.01 "HgN/A
8:30 AM68 °FLow clouds.6 mph88%30.01 "HgN/A
8:00 AM66 °FPartly sunny.6 mph94%30.01 "HgN/A
7:30 AM66 °FPassing clouds.3 mph94%30.01 "HgN/A
7:00 AM64 °FLow clouds.6 mph94%30.01 "HgN/A
6:30 AM66 °FLow clouds.3 mph94%30.01 "HgN/A
6:00 AM66 °FPassing clouds.3 mph94%30.01 "HgN/A
5:30 AM66 °FPassing clouds.2 mph94%30.01 "HgN/A
5:00 AM68 °FLow clouds.2 mph88%30.01 "HgN/A
4:30 AM68 °FPassing clouds.5 mph94%30.01 "HgN/A
4:00 AM68 °FClear.7 mph94%30.01 "Hg10 mi
3:30 AM66 °FClear.5 mph88%29.98 "Hg10 mi
3:00 AM66 °FClear.3 mph88%29.98 "Hg10 mi
2:30 AM68 °FClear.3 mph83%29.98 "Hg10 mi
2:00 AM70 °FClear.3 mph78%29.98 "Hg10 mi
1:30 AM70 °FClear.5 mph78%29.98 "Hg10 mi
1:00 AM70 °FClear.5 mph78%29.98 "Hg10 mi
12:30 AM70 °FClear.2 mph78%29.98 "Hg10 mi
12:00 AM70 °FClear.3 mph78%29.98 "Hg10 mi
11:30 PM
Sun, Aug 2
72 °FClear.3 mph78%29.95 "Hg10 mi
11:00 PM73 °FClear.2 mph74%29.95 "Hg10 mi
10:30 PM75 °FClear.2 mph65%29.95 "Hg10 mi
10:00 PM77 °FSunny.3 mph61%29.95 "Hg10 mi
9:30 PM79 °FSunny.2 mph58%29.92 "Hg10 mi
9:00 PM82 °FSunny.3 mph51%29.92 "Hg10 mi
8:30 PM86 °FSunny.5 mph46%29.92 "Hg10 mi
8:00 PM86 °FPassing clouds.5 mph46%29.92 "HgN/A
Weather by CustomWeather, © 2015

See weather overviewHow to use our weather pages